When you browse on this site, cookies collect data to enhance your experience and personalize the content and advertising you see.
Visit our Privacy Policy to learn more. By continuing to use the site, you agree to this use of cookies and data.
  • In Hungary
  • List of Countries
  • For 7 days
  • Water Temperature
  • Weather Map
  • News
  • Weather Widgets
  • user-avatar
    Login

    Hourly Weather Nosiny

    Today, 27 February, Thursday

    Time Temperature Precipitation Wind Pressure Humidity
    00:00 0°C° 0.1 mm 4 mps 741 mmHg 95%
    01:00 0°C° 0 mm 4 mps 741 mmHg 96%
    02:00 +1°C° 0 mm 3 mps 741 mmHg 96%
    03:00 0°C° 0 mm 3 mps 741 mmHg 97%
    04:00 0°C° 0.2 mm 3 mps 741 mmHg 98%
    05:00 0°C° 0.2 mm 3 mps 741 mmHg 98%
    06:00 0°C° 0.2 mm 3 mps 741 mmHg 98%
    07:00 0°C° 0.2 mm 3 mps 741 mmHg 99%
    08:00 +1°C° 0.2 mm 3 mps 741 mmHg 99%
    09:00 +1°C° 0.2 mm 3 mps 741 mmHg 99%
    10:00 0°C° 0 mm 4 mps 741 mmHg 99%
    11:00 0°C° 0 mm 4 mps 741 mmHg 98%
    12:00 0°C° 0 mm 4 mps 741 mmHg 98%
    13:00 0°C° 0 mm 4 mps 741 mmHg 98%
    14:00 0°C° 0 mm 4 mps 740 mmHg 98%
    15:00 0°C° 0 mm 4 mps 740 mmHg 98%
    16:00 0°C° 0 mm 4 mps 740 mmHg 98%
    17:00 0°C° 0 mm 4 mps 740 mmHg 97%
    18:00 0°C° 0 mm 4 mps 740 mmHg 97%
    19:00 0°C° 0 mm 4 mps 740 mmHg 97%
    20:00 0°C° 0 mm 4 mps 740 mmHg 98%
    21:00 +1°C° 0 mm 3 mps 739 mmHg 98%
    22:00 +1°C° 0.2 mm 3 mps 739 mmHg 98%
    23:00 +1°C° 0.2 mm 3 mps 739 mmHg 98%

    Tomorrow, 28 February, Friday

    Time Temperature Precipitation Wind Pressure Humidity
    00:00 +1°C° 0.2 mm 3 mps 739 mmHg 98%
    01:00 +1°C° 0.5 mm 3 mps 739 mmHg 98%
    02:00 +1°C° 0.5 mm 3 mps 739 mmHg 99%
    03:00 +1°C° 0.5 mm 3 mps 739 mmHg 99%
    04:00 +2°C° 0.3 mm 2 mps 739 mmHg 99%
    05:00 +2°C° 0.3 mm 2 mps 739 mmHg 99%
    06:00 +2°C° 0.3 mm 2 mps 739 mmHg 99%
    07:00 +3°C° 0.4 mm 2 mps 739 mmHg 99%
    08:00 +3°C° 0.4 mm 2 mps 738 mmHg 99%
    09:00 +2°C° 0.4 mm 3 mps 738 mmHg 99%
    10:00 +2°C° 1.8 mm 3 mps 738 mmHg 98%
    11:00 +3°C° 1.8 mm 4 mps 737 mmHg 98%
    12:00 +3°C° 1.8 mm 4 mps 737 mmHg 98%
    13:00 +2°C° 1.3 mm 5 mps 736 mmHg 97%
    14:00 +2°C° 1.3 mm 5 mps 736 mmHg 97%
    15:00 +3°C° 1.3 mm 6 mps 735 mmHg 96%
    16:00 +2°C° 0.9 mm 6 mps 736 mmHg 95%
    17:00 +2°C° 0.9 mm 5 mps 736 mmHg 95%
    18:00 +1°C° 0.9 mm 5 mps 737 mmHg 94%
    19:00 -1°C° 0.3 mm 6 mps 737 mmHg 92%
    20:00 -2°C° 0.3 mm 6 mps 738 mmHg 90%
    21:00 -3°C° 0.3 mm 7 mps 739 mmHg 88%
    22:00 -3°C° 0 mm 6 mps 740 mmHg 89%
    23:00 -2°C° 0 mm 5 mps 741 mmHg 89%

    Day after tomorrow, 29 February, Saturday

    Time Temperature Precipitation Wind Pressure Humidity
    00:00 -4°C° 0 mm 5 mps 742 mmHg 90%
    01:00 -4°C° 0 mm 5 mps 742 mmHg 89%
    02:00 -4°C° 0 mm 5 mps 743 mmHg 88%
    03:00 -4°C° 0 mm 5 mps 744 mmHg 87%
    04:00 -5°C° 0 mm 5 mps 744 mmHg 88%
    05:00 -5°C° 0 mm 5 mps 745 mmHg 88%
    06:00 -4°C° 0 mm 4 mps 745 mmHg 88%
    07:00 -5°C° 0 mm 5 mps 745 mmHg 87%
    08:00 -4°C° 0 mm 5 mps 746 mmHg 86%
    09:00 -4°C° 0 mm 5 mps 746 mmHg 86%
    10:00 -4°C° 0 mm 5 mps 747 mmHg 83%
    11:00 -2°C° 0 mm 5 mps 747 mmHg 81%
    12:00 -2°C° 0 mm 5 mps 747 mmHg 78%
    13:00 -1°C° 0 mm 5 mps 748 mmHg 78%
    14:00 -1°C° 0 mm 5 mps 748 mmHg 79%
    15:00 -1°C° 0 mm 5 mps 748 mmHg 79%
    16:00 -1°C° 0 mm 4 mps 748 mmHg 82%
    17:00 -2°C° 0 mm 4 mps 749 mmHg 85%
    18:00 -1°C° 0 mm 3 mps 749 mmHg 88%
    19:00 -2°C° 0 mm 3 mps 750 mmHg 88%
    20:00 -2°C° 0 mm 3 mps 750 mmHg 88%
    21:00 -2°C° 0 mm 3 mps 751 mmHg 89%
    22:00 -4°C° 0 mm 3 mps 751 mmHg 88%
    23:00 -4°C° 0 mm 3 mps 752 mmHg 87%

    1 March, Sunday

    Time Temperature Precipitation Wind Pressure Humidity
    00:00 -4°C° 0 mm 3 mps 752 mmHg 86%
    01:00 -3°C° 0 mm 2 mps 753 mmHg 86%
    02:00 -4°C° 0 mm 2 mps 753 mmHg 86%
    03:00 -4°C° 0 mm 2 mps 754 mmHg 86%
    04:00 -4°C° 0 mm 2 mps 754 mmHg 85%
    05:00 -4°C° 0 mm 2 mps 754 mmHg 85%
    06:00 -4°C° 0 mm 2 mps 755 mmHg 84%
    07:00 -2°C° 0 mm 1 mps 755 mmHg 82%
    08:00 -1°C° 0 mm 1 mps 756 mmHg 79%
    09:00 -1°C° 0 mm 1 mps 756 mmHg 76%
    10:00 0°C° 0 mm 1 mps 757 mmHg 73%
    11:00 +1°C° 0 mm 1 mps 757 mmHg 71%
    12:00 +1°C° 0 mm 1 mps 757 mmHg 68%
    13:00 +1°C° 0 mm 2 mps 757 mmHg 69%
    14:00 +1°C° 0 mm 2 mps 757 mmHg 71%
    15:00 +1°C° 0 mm 2 mps 757 mmHg 72%
    16:00 -1°C° 0 mm 2 mps 757 mmHg 76%
    17:00 -1°C° 0 mm 2 mps 757 mmHg 81%
    18:00 -2°C° 0 mm 2 mps 757 mmHg 85%
    19:00 -2°C° 0 mm 2 mps 758 mmHg 86%
    20:00 -2°C° 0 mm 2 mps 758 mmHg 86%
    21:00 -2°C° 0 mm 3 mps 758 mmHg 86%
    22:00 -2°C° 0 mm 3 mps 758 mmHg 86%
    23:00 -2°C° 0 mm 3 mps 758 mmHg 85%

    2 March, Monday

    Time Temperature Precipitation Wind Pressure Humidity
    00:00 -2°C° 0 mm 3 mps 758 mmHg 84%
    01:00 -2°C° 0 mm 3 mps 758 mmHg 84%
    02:00 -2°C° 0 mm 3 mps 758 mmHg 83%
    03:00 -3°C° 0 mm 4 mps 758 mmHg 82%
    04:00 -3°C° 0 mm 4 mps 758 mmHg 82%
    05:00 -3°C° 0 mm 4 mps 758 mmHg 82%
    06:00 -3°C° 0 mm 4 mps 758 mmHg 82%
    07:00 -3°C° 0 mm 4 mps 758 mmHg 80%
    08:00 -2°C° 0 mm 5 mps 758 mmHg 78%
    09:00 -2°C° 0 mm 5 mps 758 mmHg 76%
    10:00 -1°C° 0 mm 5 mps 757 mmHg 73%
    11:00 0°C° 0 mm 5 mps 757 mmHg 71%
    12:00 +1°C° 0 mm 5 mps 757 mmHg 69%
    13:00 +1°C° 0 mm 5 mps 757 mmHg 69%
    14:00 +1°C° 0 mm 5 mps 757 mmHg 69%
    15:00 +2°C° 0 mm 5 mps 757 mmHg 69%
    16:00 +1°C° 0 mm 4 mps 757 mmHg 71%
    17:00 0°C° 0 mm 4 mps 756 mmHg 74%
    18:00 -1°C° 0 mm 4 mps 756 mmHg 77%
    19:00 -1°C° 0 mm 4 mps 756 mmHg 78%
    20:00 -1°C° 0 mm 4 mps 756 mmHg 78%
    21:00 -1°C° 0 mm 4 mps 756 mmHg 78%
    22:00 -1°C° 0 mm 4 mps 757 mmHg 79%
    23:00 -2°C° 0 mm 4 mps 757 mmHg 79%

    3 March, Tuesday

    Time Temperature Precipitation Wind Pressure Humidity
    00:00 -2°C° 0 mm 4 mps 757 mmHg 79%
    01:00 -2°C° 0 mm 4 mps 757 mmHg 78%
    02:00 -2°C° 0 mm 4 mps 757 mmHg 77%
    03:00 -2°C° 0 mm 4 mps 757 mmHg 76%
    04:00 -2°C° 0 mm 4 mps 757 mmHg 75%
    05:00 -2°C° 0 mm 4 mps 757 mmHg 74%
    06:00 -2°C° 0 mm 4 mps 756 mmHg 73%
    07:00 -2°C° 0 mm 4 mps 756 mmHg 70%
    08:00 -2°C° 0 mm 5 mps 756 mmHg 66%
    09:00 -1°C° 0 mm 5 mps 756 mmHg 63%
    10:00 -2°C° 0 mm 6 mps 756 mmHg 63%
    11:00 -1°C° 0 mm 6 mps 756 mmHg 62%
    12:00 +1°C° 0 mm 6 mps 756 mmHg 61%
    13:00 +1°C° 0 mm 6 mps 756 mmHg 60%
    14:00 +1°C° 0 mm 5 mps 756 mmHg 59%
    15:00 +1°C° 0 mm 5 mps 756 mmHg 59%
    16:00 0°C° 0 mm 5 mps 756 mmHg 64%
    17:00 0°C° 0 mm 5 mps 756 mmHg 69%
    18:00 -1°C° 0 mm 5 mps 755 mmHg 75%
    19:00 -1°C° 0 mm 5 mps 756 mmHg 75%
    20:00 -1°C° 0 mm 5 mps 756 mmHg 75%
    21:00 -1°C° 0 mm 5 mps 756 mmHg 76%
    22:00 -2°C° 0 mm 5 mps 756 mmHg 80%
    23:00 -2°C° 0 mm 5 mps 756 mmHg 84%
    Show more